Time,TemperatureF,DewpointF,PressureIn,WindDirection,WindDirectionDegrees,WindSpeedMPH,WindSpeedGustMPH,Humidity,HourlyPrecipIn,Conditions,Clouds,dailyrainin,SoftwareType,DateUTC
2013-06-15 00:02:00,64.0,60.0,30.05,SSW,199,0.0,0.0,87,0.00,,,0.00,,2013-06-15 05:02:00,
2013-06-15 00:12:00,64.0,60.0,30.06,SSW,199,0.0,0.0,87,0.00,,,0.00,,2013-06-15 05:12:00,
2013-06-15 00:22:00,64.0,60.0,30.05,SSW,199,0.0,0.0,88,0.00,,,0.00,,2013-06-15 05:22:00,
2013-06-15 00:34:00,64.0,61.0,30.06,SSW,199,0.0,0.0,89,0.00,,,0.00,,2013-06-15 05:34:00,
2013-06-15 00:43:00,64.0,61.0,30.06,SSW,199,0.0,0.0,89,0.00,,,0.00,,2013-06-15 05:43:00,
2013-06-15 00:52:00,64.0,61.0,30.06,SSW,199,0.0,0.0,89,0.00,,,0.00,,2013-06-15 05:52:00,
2013-06-15 01:02:00,64.0,61.0,30.06,SSW,199,0.0,0.0,89,0.00,,,0.00,,2013-06-15 06:02:00,
2013-06-15 01:12:00,64.0,61.0,30.06,SSW,199,0.0,0.0,89,0.00,,,0.00,,2013-06-15 06:12:00,
2013-06-15 01:24:00,63.0,60.0,30.05,SSW,199,0.0,0.0,89,0.00,,,0.00,,2013-06-15 06:24:00,
2013-06-15 01:33:00,63.0,60.0,30.05,SSW,199,0.0,0.0,90,0.00,,,0.00,,2013-06-15 06:33:00,
2013-06-15 01:43:00,63.0,60.0,30.05,SSW,199,0.0,0.0,90,0.00,,,0.00,,2013-06-15 06:43:00,
2013-06-15 01:53:00,63.0,60.0,30.05,SSW,199,0.0,0.0,91,0.00,,,0.00,,2013-06-15 06:53:00,
2013-06-15 02:01:00,63.0,60.0,30.06,SSW,199,0.0,0.0,91,0.00,,,0.00,,2013-06-15 07:01:00,
2013-06-15 02:11:00,63.0,60.0,30.06,SSW,199,0.0,0.0,91,0.00,,,0.00,,2013-06-15 07:11:00,
2013-06-15 02:23:00,62.0,60.0,30.06,SSW,199,0.0,0.0,92,0.00,,,0.00,,2013-06-15 07:23:00,
2013-06-15 02:33:00,62.0,59.0,30.06,SSW,199,0.0,0.0,91,0.00,,,0.00,,2013-06-15 07:33:00,
2013-06-15 02:43:00,62.0,59.0,30.06,SSW,199,0.0,0.0,91,0.00,,,0.00,,2013-06-15 07:43:00,
2013-06-15 02:53:00,62.0,59.0,30.05,SSW,199,0.0,0.0,91,0.00,,,0.00,,2013-06-15 07:53:00,
2013-06-15 03:02:00,62.0,60.0,30.04,SSW,199,0.0,0.0,92,0.00,,,0.00,,2013-06-15 08:02:00,
2013-06-15 03:11:00,62.0,60.0,30.04,SSW,199,0.0,0.0,92,0.00,,,0.00,,2013-06-15 08:11:00,
2013-06-15 03:22:00,62.0,60.0,30.04,SSW,199,0.0,0.0,92,0.00,,,0.00,,2013-06-15 08:22:00,
2013-06-15 03:33:00,62.0,60.0,30.04,SSW,199,0.0,0.0,92,0.00,,,0.00,,2013-06-15 08:33:00,
2013-06-15 03:42:00,62.0,60.0,30.04,SSW,199,0.0,0.0,92,0.00,,,0.00,,2013-06-15 08:42:00,
2013-06-15 03:53:00,62.0,60.0,30.04,SSW,199,0.0,0.0,92,0.00,,,0.00,,2013-06-15 08:53:00,
2013-06-15 04:02:00,62.0,59.0,30.04,SSW,199,0.0,0.0,91,0.00,,,0.00,,2013-06-15 09:02:00,
2013-06-15 04:12:00,62.0,59.0,30.04,SSW,199,0.0,0.0,91,0.00,,,0.00,,2013-06-15 09:12:00,
2013-06-15 04:22:00,62.0,60.0,30.04,SSW,199,0.0,0.0,92,0.00,,,0.00,,2013-06-15 09:22:00,
2013-06-15 04:33:00,61.0,59.0,30.05,SSW,199,0.0,0.0,93,0.00,,,0.00,,2013-06-15 09:33:00,
2013-06-15 04:43:00,61.0,59.0,30.05,SSW,199,0.0,0.0,93,0.00,,,0.00,,2013-06-15 09:43:00,
2013-06-15 04:52:00,61.0,59.0,30.06,SSW,199,0.0,0.0,93,0.00,,,0.00,,2013-06-15 09:52:00,
2013-06-15 05:02:00,61.0,59.0,30.06,SSW,199,0.0,0.0,93,0.00,,,0.00,,2013-06-15 10:02:00,
2013-06-15 05:11:00,61.0,59.0,30.06,SSW,199,0.0,0.0,93,0.00,,,0.00,,2013-06-15 10:11:00,
2013-06-15 05:23:00,61.0,59.0,30.06,SSW,199,0.0,0.0,93,0.00,,,0.00,,2013-06-15 10:23:00,
2013-06-15 05:33:00,61.0,59.0,30.07,SSW,199,0.0,0.0,93,0.00,,,0.00,,2013-06-15 10:33:00,
2013-06-15 05:44:00,61.0,59.0,30.07,SSW,199,0.0,0.0,93,0.00,,,0.00,,2013-06-15 10:44:00,
2013-06-15 05:53:00,61.0,59.0,30.07,SSW,199,0.0,0.0,94,0.00,,,0.00,,2013-06-15 10:53:00,
2013-06-15 06:02:00,61.0,59.0,30.08,SSW,199,0.0,0.0,94,0.00,,,0.00,,2013-06-15 11:02:00,
2013-06-15 06:11:00,61.0,59.0,30.08,SSW,199,0.0,0.0,94,0.00,,,0.00,,2013-06-15 11:11:00,
2013-06-15 06:22:00,61.0,59.0,30.08,SSW,199,0.0,0.0,94,0.00,,,0.00,,2013-06-15 11:22:00,
2013-06-15 06:33:00,61.0,59.0,30.09,SSW,199,0.0,0.0,94,0.00,,,0.00,,2013-06-15 11:33:00,
2013-06-15 06:43:00,61.0,59.0,30.09,SSW,199,0.0,0.0,94,0.00,,,0.00,,2013-06-15 11:43:00,
2013-06-15 06:53:00,62.0,61.0,30.09,SSW,199,0.0,0.0,95,0.00,,,0.00,,2013-06-15 11:53:00,
2013-06-15 07:01:00,62.0,61.0,30.10,SSW,199,0.0,0.0,95,0.00,,,0.00,,2013-06-15 12:01:00,
2013-06-15 07:12:00,62.0,61.0,30.10,SSW,199,0.0,0.0,95,0.00,,,0.00,,2013-06-15 12:12:00,
2013-06-15 07:22:00,64.0,63.0,30.11,SSW,199,0.0,0.0,95,0.00,,,0.00,,2013-06-15 12:22:00,
2013-06-15 07:33:00,65.0,63.0,30.11,SSW,199,0.0,0.0,93,0.00,,,0.00,,2013-06-15 12:33:00,
2013-06-15 07:43:00,65.0,63.0,30.11,SSW,199,0.0,0.0,93,0.00,,,0.00,,2013-06-15 12:43:00,
2013-06-15 07:52:00,66.0,63.0,30.11,SSW,199,0.0,0.0,90,0.00,,,0.00,,2013-06-15 12:52:00,
2013-06-15 08:02:00,67.0,64.0,30.11,SSW,199,0.0,0.0,89,0.00,,,0.00,,2013-06-15 13:02:00,
2013-06-15 08:11:00,67.0,64.0,30.11,SSW,199,0.0,0.0,89,0.00,,,0.00,,2013-06-15 13:11:00,
2013-06-15 08:22:00,68.0,64.0,30.11,SSW,199,0.0,0.0,88,0.00,,,0.00,,2013-06-15 13:22:00,
2013-06-15 08:32:00,71.0,65.0,30.11,SSW,199,0.0,0.0,81,0.00,,,0.00,,2013-06-15 13:32:00,
2013-06-15 08:43:00,71.0,65.0,30.11,SSW,199,0.0,0.0,81,0.00,,,0.00,,2013-06-15 13:43:00,
2013-06-15 08:53:00,73.0,64.0,30.10,SSW,198,0.0,0.0,74,0.00,,,0.00,,2013-06-15 13:53:00,
2013-06-15 09:01:00,74.0,63.0,30.09,SSW,200,0.0,0.0,69,0.00,,,0.00,,2013-06-15 14:01:00,
2013-06-15 09:12:00,74.0,63.0,30.09,SSW,200,0.0,0.0,69,0.00,,,0.00,,2013-06-15 14:12:00,
2013-06-15 09:22:00,75.0,64.0,30.09,South,183,0.0,0.0,68,0.00,,,0.00,,2013-06-15 14:22:00,
2013-06-15 09:34:00,76.0,64.0,30.08,SE,140,0.0,0.0,66,0.00,,,0.00,,2013-06-15 14:34:00,
2013-06-15 09:43:00,76.0,64.0,30.08,SE,140,0.0,0.0,66,0.00,,,0.00,,2013-06-15 14:43:00,
2013-06-15 09:54:00,77.0,64.0,30.05,ESE,115,0.0,7.0,65,0.00,,,0.00,,2013-06-15 14:54:00,
2013-06-15 10:02:00,78.0,62.0,30.03,SE,126,0.0,0.0,59,0.00,,,0.00,,2013-06-15 15:02:00,
2013-06-15 10:11:00,78.0,62.0,30.03,SE,126,0.0,0.0,59,0.00,,,0.00,,2013-06-15 15:11:00,
2013-06-15 10:22:00,78.0,61.0,30.01,SSE,167,6.0,11.0,55,0.00,,,0.00,,2013-06-15 15:22:00,
2013-06-15 10:33:00,79.0,62.0,30.01,SE,141,4.0,13.0,57,0.00,,,0.00,,2013-06-15 15:33:00,
2013-06-15 10:43:00,79.0,62.0,30.01,SE,141,4.0,13.0,57,0.00,,,0.00,,2013-06-15 15:43:00,
2013-06-15 10:53:00,79.0,61.0,30.02,SE,132,2.0,11.0,55,0.00,,,0.00,,2013-06-15 15:53:00,
2013-06-15 11:01:00,80.0,61.0,30.04,South,187,2.0,11.0,53,0.00,,,0.00,,2013-06-15 16:01:00,
2013-06-15 11:11:00,80.0,61.0,30.04,South,187,2.0,11.0,53,0.00,,,0.00,,2013-06-15 16:11:00,
2013-06-15 11:22:00,80.0,62.0,30.05,SSE,163,0.0,10.0,54,0.00,,,0.00,,2013-06-15 16:22:00,
2013-06-15 11:33:00,81.0,61.0,30.05,SSE,162,0.0,8.0,51,0.00,,,0.00,,2013-06-15 16:33:00,
2013-06-15 11:43:00,81.0,61.0,30.05,SSE,162,0.0,8.0,51,0.00,,,0.00,,2013-06-15 16:43:00,
2013-06-15 11:53:00,81.0,62.0,30.04,SW,231,7.0,13.0,53,0.00,,,0.00,,2013-06-15 16:53:00,
2013-06-15 12:02:00,81.0,62.0,30.05,South,171,0.0,11.0,52,0.00,,,0.00,,2013-06-15 17:02:00,
2013-06-15 12:12:00,81.0,62.0,30.05,South,171,0.0,11.0,52,0.00,,,0.00,,2013-06-15 17:12:00,
2013-06-15 12:22:00,81.0,61.0,30.05,SW,226,4.0,13.0,51,0.00,,,0.00,,2013-06-15 17:22:00,
2013-06-15 12:32:00,82.0,61.0,30.04,SSE,162,6.0,11.0,49,0.00,,,0.00,,2013-06-15 17:32:00,
2013-06-15 12:43:00,82.0,61.0,30.04,SSE,162,6.0,11.0,49,0.00,,,0.00,,2013-06-15 17:43:00,
2013-06-15 12:52:00,82.0,62.0,30.04,SSW,209,0.0,7.0,51,0.00,,,0.00,,2013-06-15 17:52:00,
2013-06-15 13:01:00,83.0,62.0,30.04,SW,218,0.0,2.0,49,0.00,,,0.00,,2013-06-15 18:01:00,
2013-06-15 13:12:00,83.0,62.0,30.04,SW,218,0.0,2.0,49,0.00,,,0.00,,2013-06-15 18:12:00,
2013-06-15 13:22:00,83.0,61.0,30.03,SSW,200,0.0,1.0,47,0.00,,,0.00,,2013-06-15 18:22:00,
2013-06-15 13:32:00,83.0,61.0,30.03,SSW,207,0.0,0.0,47,0.00,,,0.00,,2013-06-15 18:32:00,
2013-06-15 13:43:00,83.0,61.0,30.03,SSW,207,0.0,0.0,47,0.00,,,0.00,,2013-06-15 18:43:00,
2013-06-15 13:53:00,83.0,61.0,30.03,South,178,0.0,1.0,48,0.00,,,0.00,,2013-06-15 18:53:00,
2013-06-15 14:01:00,84.0,61.0,30.03,SW,219,0.0,0.0,46,0.00,,,0.00,,2013-06-15 19:01:00,
2013-06-15 14:11:00,84.0,61.0,30.03,SW,219,0.0,0.0,46,0.00,,,0.00,,2013-06-15 19:11:00,
2013-06-15 14:22:00,85.0,61.0,30.02,SSW,196,0.0,5.0,44,0.00,,,0.00,,2013-06-15 19:22:00,
2013-06-15 14:33:00,85.0,60.0,30.02,South,173,0.0,1.0,43,0.00,,,0.00,,2013-06-15 19:33:00,
2013-06-15 14:43:00,85.0,60.0,30.02,South,173,0.0,1.0,43,0.00,,,0.00,,2013-06-15 19:43:00,
2013-06-15 14:53:00,84.0,62.0,30.02,WNW,300,0.0,5.0,47,0.00,,,0.00,,2013-06-15 19:53:00,
2013-06-15 15:02:00,85.0,62.0,30.01,SSW,200,0.0,0.0,47,0.00,,,0.00,,2013-06-15 20:02:00,
2013-06-15 15:11:00,85.0,62.0,30.01,SSW,200,0.0,0.0,47,0.00,,,0.00,,2013-06-15 20:11:00,
2013-06-15 15:22:00,86.0,64.0,30.02,West,265,0.0,2.0,48,0.00,,,0.00,,2013-06-15 20:22:00,
2013-06-15 15:33:00,86.0,60.0,30.01,South,184,0.0,2.0,41,0.00,,,0.00,,2013-06-15 20:33:00,
2013-06-15 15:43:00,86.0,60.0,30.01,South,184,0.0,2.0,41,0.00,,,0.00,,2013-06-15 20:43:00,
2013-06-15 15:53:00,86.0,60.0,30.01,South,174,0.0,5.0,42,0.00,,,0.00,,2013-06-15 20:53:00,
2013-06-15 16:01:00,86.0,60.0,30.01,WSW,247,0.0,1.0,42,0.00,,,0.00,,2013-06-15 21:01:00,
2013-06-15 16:12:00,86.0,60.0,30.01,WSW,247,0.0,1.0,42,0.00,,,0.00,,2013-06-15 21:12:00,
2013-06-15 16:22:00,86.0,58.0,30.00,SSW,199,1.0,6.0,39,0.00,,,0.00,,2013-06-15 21:22:00,
2013-06-15 16:33:00,87.0,59.0,30.00,ESE,122,0.0,0.0,39,0.00,,,0.00,,2013-06-15 21:33:00,
2013-06-15 16:42:00,87.0,59.0,30.00,ESE,122,0.0,0.0,39,0.00,,,0.00,,2013-06-15 21:42:00,
2013-06-15 16:53:00,86.0,58.0,30.00,SSW,209,0.0,0.0,39,0.00,,,0.00,,2013-06-15 21:53:00,
2013-06-15 17:01:00,87.0,60.0,30.00,SSW,200,0.0,0.0,40,0.00,,,0.00,,2013-06-15 22:01:00,
2013-06-15 17:11:00,87.0,60.0,30.00,SSW,200,0.0,0.0,40,0.00,,,0.00,,2013-06-15 22:11:00,
2013-06-15 17:22:00,87.0,61.0,30.00,SSW,205,0.0,0.0,42,0.00,,,0.00,,2013-06-15 22:22:00,
2013-06-15 17:32:00,87.0,62.0,29.98,South,191,0.0,0.0,43,0.00,,,0.00,,2013-06-15 22:32:00,
2013-06-15 17:42:00,87.0,62.0,29.98,South,191,0.0,0.0,43,0.00,,,0.00,,2013-06-15 22:42:00,
2013-06-15 17:53:00,86.0,62.0,29.98,South,169,0.0,1.0,45,0.00,,,0.00,,2013-06-15 22:53:00,
2013-06-15 18:02:00,86.0,63.0,29.97,SW,224,0.0,0.0,46,0.00,,,0.00,,2013-06-15 23:02:00,
2013-06-15 18:12:00,86.0,63.0,29.97,SW,224,0.0,0.0,46,0.00,,,0.00,,2013-06-15 23:12:00,
2013-06-15 18:22:00,85.0,62.0,29.98,SSW,199,0.0,1.0,47,0.00,,,0.00,,2013-06-15 23:22:00,
2013-06-15 18:33:00,85.0,61.0,29.98,SSW,205,0.0,0.0,45,0.00,,,0.00,,2013-06-15 23:33:00,
2013-06-15 18:42:00,85.0,61.0,29.98,SSW,205,0.0,0.0,45,0.00,,,0.00,,2013-06-15 23:42:00,
2013-06-15 18:53:00,85.0,62.0,29.98,South,190,0.0,0.0,47,0.00,,,0.00,,2013-06-15 23:53:00,
2013-06-15 19:01:00,83.0,63.0,29.98,SSW,199,0.0,7.0,51,0.00,,,0.00,,2013-06-16 00:01:00,
2013-06-15 19:11:00,83.0,63.0,29.98,SSW,199,0.0,7.0,51,0.00,,,0.00,,2013-06-16 00:11:00,
2013-06-15 19:22:00,82.0,64.0,29.99,SW,223,0.0,0.0,54,0.00,,,0.00,,2013-06-16 00:22:00,
2013-06-15 19:34:00,81.0,63.0,29.98,SSW,198,0.0,0.0,54,0.00,,,0.00,,2013-06-16 00:34:00,
2013-06-15 19:43:00,81.0,63.0,29.98,SSW,198,0.0,0.0,54,0.00,,,0.00,,2013-06-16 00:43:00,
2013-06-15 19:52:00,80.0,63.0,29.97,SSW,208,0.0,0.0,56,0.00,,,0.00,,2013-06-16 00:52:00,
2013-06-15 20:01:00,79.0,64.0,29.97,SSW,199,0.0,0.0,60,0.00,,,0.00,,2013-06-16 01:01:00,
2013-06-15 20:11:00,79.0,64.0,29.97,SSW,199,0.0,0.0,60,0.00,,,0.00,,2013-06-16 01:11:00,
2013-06-15 20:22:00,79.0,64.0,29.96,SW,214,0.0,0.0,61,0.00,,,0.00,,2013-06-16 01:22:00,
2013-06-15 20:33:00,78.0,64.0,29.97,SSW,202,0.0,0.0,63,0.00,,,0.00,,2013-06-16 01:33:00,
2013-06-15 20:42:00,78.0,64.0,29.97,SSW,202,0.0,0.0,63,0.00,,,0.00,,2013-06-16 01:42:00,
2013-06-15 20:53:00,78.0,64.0,29.96,SSW,196,0.0,1.0,63,0.00,,,0.00,,2013-06-16 01:53:00,
2013-06-15 21:01:00,77.0,64.0,29.96,SSW,203,0.0,0.0,65,0.00,,,0.00,,2013-06-16 02:01:00,
2013-06-15 21:12:00,77.0,64.0,29.96,SSW,203,0.0,0.0,65,0.00,,,0.00,,2013-06-16 02:12:00,
2013-06-15 21:22:00,77.0,65.0,29.96,SSW,195,0.0,0.0,66,0.00,,,0.00,,2013-06-16 02:22:00,
2013-06-15 21:33:00,77.0,65.0,29.96,SW,221,0.0,0.0,67,0.00,,,0.00,,2013-06-16 02:33:00,
2013-06-15 21:43:00,77.0,65.0,29.96,SW,221,0.0,0.0,67,0.00,,,0.00,,2013-06-16 02:43:00,
2013-06-15 21:53:00,76.0,65.0,29.97,SSW,209,0.0,0.0,68,0.00,,,0.00,,2013-06-16 02:53:00,
2013-06-15 22:02:00,76.0,65.0,29.97,SSW,209,0.0,0.0,68,0.00,,,0.00,,2013-06-16 03:02:00,
2013-06-15 22:12:00,76.0,65.0,29.98,SSW,201,0.0,0.0,69,0.00,,,0.00,,2013-06-16 03:12:00,
2013-06-15 22:22:00,76.0,65.0,29.98,South,185,0.0,1.0,69,0.00,,,0.00,,2013-06-16 03:22:00,
2013-06-15 22:33:00,76.0,65.0,29.99,SSW,196,0.0,0.0,69,0.00,,,0.00,,2013-06-16 03:33:00,
2013-06-15 22:43:00,76.0,65.0,29.99,SSW,196,0.0,0.0,69,0.00,,,0.00,,2013-06-16 03:43:00,
2013-06-15 22:53:00,76.0,65.0,29.99,SW,215,0.0,0.0,70,0.00,,,0.00,,2013-06-16 03:53:00,
2013-06-15 23:02:00,76.0,66.0,29.99,SSW,196,0.0,0.0,71,0.00,,,0.00,,2013-06-16 04:02:00,
2013-06-15 23:12:00,76.0,66.0,29.99,SSW,196,0.0,0.0,71,0.00,,,0.00,,2013-06-16 04:12:00,
2013-06-15 23:23:00,76.0,65.0,30.01,SW,223,0.0,0.0,69,0.00,,,0.00,,2013-06-16 04:23:00,
2013-06-15 23:33:00,75.0,65.0,30.01,SSW,205,0.0,0.0,70,0.00,,,0.00,,2013-06-16 04:33:00,
2013-06-15 23:42:00,75.0,65.0,30.01,SSW,205,0.0,0.0,70,0.00,,,0.00,,2013-06-16 04:42:00,
2013-06-15 23:53:00,75.0,65.0,30.01,SSW,205,0.0,0.0,71,0.00,,,0.00,,2013-06-16 04:53:00,